Wind_Speed
40 41 42 43 44 45 45 45 45 45 45 45 46 46 47 47 47 47 47 47 48 48 49 49 49 49 49 49 50 51 51 51 51 49 49 49 50 49 50 51 51 51 51
41 42 43 44 44 44 45 45 46 47 47 47 47 48 47 48 49 49 49 49 49 50 50 50 51 51 51 51 51 51 51 52 52 52 51 50 50 50 50 50 51 51 51
41 42 43 44 44 44 45 45 47 48 48 49 49 49 49 49 49 49 50 50 51 51 52 52 52 53 53 53 53 52 52 53 53 53 52 52 52 51 51 51 52 52 52
42 42 43 44 44 44 46 47 48 48 49 49 49 49 50 50 51 50 51 51 52 52 53 53 53 53 53 54 53 53 53 53 53 53 53 53 53 53 53 52 53 54 54
41 42 42 44 45 46 47 48 49 50 50 50 50 50 50 51 51 51 52 53 53 53 53 54 54 53 53 54 54 54 54 53 54 54 54 54 53 53 54 54 55 55 55
42 42 43 45 46 47 48 48 48 50 50 50 51 50 50 51 51 51 52 54 53 53 54 54 55 54 54 54 54 55 55 55 55 55 55 55 54 54 54 55 55 56 56
44 44 44 45 46 47 48 47 47 47 48 49 49 50 50 51 52 52 52 53 53 53 53 54 54 55 55 54 54 55 55 55 56 56 56 56 55 55 55 55 55 56 55
44 45 45 46 46 46 47 47 47 46 46 47 48 49 50 51 52 53 53 53 53 53 53 54 54 54 55 56 55 55 54 54 55 55 55 55 55 55 54 54 54 54 54
44 45 45 45 45 45 46 47 47 48 47 48 48 49 49 51 52 53 53 54 53 53 53 53 54 54 55 55 55 55 54 54 54 54 54 54 53 53 53 54 54 54 54
44 44 45 45 45 45 46 46 47 48 48 48 49 49 49 50 51 52 53 53 53 53 53 53 54 54 54 54 55 55 54 54 53 53 52 52 52 52 52 53 53 53 53
43 43 44 45 46 46 47 47 47 47 48 48 49 50 50 50 50 50 51 51 51 51 51 52 52 52 52 52 53 53 53 53 52 51 51 51 51 51 51 51 51 51 52
43 43 44 45 46 46 47 47 48 48 48 48 49 49 49 49 49 48 48 48 49 49 49 49 49 49 50 50 50 50 50 50 50 50 50 50 49 49 49 49 49 49 49
43 44 44 45 45 46 47 47 48 48 48 47 46 46 46 46 46 46 46 46 47 47 47 48 48 48 48 48 48 47 48 48 48 48 48 48 48 48 48 47 48 48 48
44 45 45 45 46 46 47 47 47 47 46 46 45 44 44 44 45 44 44 44 45 45 46 46 47 47 47 47 47 46 47 47 48 48 48 48 48 47 47 47 47 47 47
44 45 46 46 46 46 46 46 45 45 44 44 43 43 43 43 43 44 44 43 44 44 45 45 45 45 44 45 45 45 46 46 47 47 48 48 48 47 47 48 48 48 47
44 45 45 45 45 45 44 44 44 44 43 42 42 42 42 42 42 43 43 43 44 44 44 43 43 43 43 43 43 43 44 45 46 46 47 47 48 48 48 48 48 48 48
44 44 44 44 44 44 44 43 42 42 42 41 41 41 41 41 42 42 43 43 43 44 43 42 41 41 41 41 42 42 43 44 45 45 46 47 47 48 47 47 47 47 47
43 43 43 42 43 43 42 42 41 41 41 41 40 40 40 40 40 40 41 41 41 42 42 42 41 41 40 40 40 41 41 42 43 44 45 45 46 47 47 46 46 46 46
42 42 42 42 42 41 41 41 41 41 40 40 40 39 39 39 39 40 39 39 39 40 40 40 40 40 40 40 41 41 41 41 42 42 43 44 44 45 45 45 45 45 45
41 40 40 41 41 40 40 40 40 40 40 39 39 39 39 39 39 39 39 39 39 39 39 39 39 39 39 40 41 41 41 42 42 42 42 43 43 43 43 43 43 43 42
39 39 39 39 39 39 38 38 39 39 39 38 38 38 38 38 39 39 38 39 39 39 39 39 39 39 39 39 39 39 40 40 41 42 42 42 42 41 41 41 41 41 41
37 38 38 38 38 37 37 37 37 37 37 37 37 37 38 38 38 38 38 39 39 39 39 39 39 39 39 39 39 39 39 39 39 40 40 40 40 40 40 40 40 40 40
36 37 37 37 37 37 37 37 37 36 36 37 37 37 38 38 38 38 38 38 39 39 39 39 39 40 40 40 40 40 39 39 39 40 39 39 39 39 39 39 39 39 39
35 35 35 35 35 35 35 35 35 35 36 37 37 37 37 37 37 37 37 38 38 39 39 39 40 40 39 39 40 40 40 40 40 39 39 39 39 38 38 37 37 36 36
33 33 33 33 33 33 33 33 33 34 35 35 36 36 36 37 36 36 36 36 36 37 37 38 38 38 38 38 38 38 38 38 38 38 37 37 36 36 36 36 35 35 35
31 31 31 31 32 31 31 32 33 33 34 34 34 34 34 34 34 35 35 35 36 36 36 36 35 36 36 36 36 36 36 36 36 36 35 35 35 35 35 35 35 35 35
Wind_Direction
264 263 264 264 265 265 265 264 262 263 263 262 262 263 263 264 262 262 261 260 258 258 258 258 260 262 263 263 264 264 265 266 268 268 269 269 270 270 270 269 270 270 271
265 265 264 265 266 266 266 265 264 264 264 264 264 263 263 263 263 262 262 261 259 259 259 259 261 262 263 263 264 264 265 266 267 267 268 269 269 269 270 270 270 271 272
266 266 266 267 267 267 267 267 266 265 266 266 265 264 264 264 264 263 263 262 261 260 260 261 262 263 263 263 264 264 265 265 266 267 267 268 268 269 270 271 271 271 272
266 267 267 267 268 268 268 267 267 266 267 267 267 266 266 265 265 264 263 262 261 261 261 262 262 263 263 263 263 264 265 266 267 267 268 268 268 269 270 270 271 272 272
266 267 268 268 268 269 269 269 268 267 267 267 266 266 266 265 265 264 264 263 262 262 262 263 263 263 264 264 264 265 265 266 267 268 268 268 268 269 269 270 271 271 271
267 268 269 270 270 270 270 270 269 268 267 266 266 266 266 265 265 265 264 263 262 262 263 263 263 263 264 264 264 265 265 266 266 267 268 268 268 269 269 270 270 270 270
268 269 271 271 271 270 270 269 269 268 267 266 266 266 266 265 265 265 265 264 263 263 263 263 263 263 263 263 264 265 265 265 266 267 268 268 269 269 269 270 270 270 270
269 270 271 271 271 270 269 269 269 268 268 268 267 267 267 266 266 265 265 265 264 263 263 262 263 263 263 264 264 265 265 266 267 268 269 269 269 270 269 270 270 270 270
271 271 271 271 271 271 270 270 270 269 269 269 268 268 267 267 267 266 266 265 265 264 264 263 262 262 263 264 265 265 266 266 267 267 269 269 270 270 270 270 270 270 269
271 271 271 271 272 272 271 271 271 271 271 270 269 269 269 268 267 267 266 265 265 264 264 264 263 263 263 264 264 264 265 265 266 267 268 268 269 270 270 270 270 269 269
271 271 272 272 272 272 273 272 272 272 272 272 271 270 269 269 268 267 266 265 265 265 265 265 265 265 265 264 265 265 265 265 265 265 266 266 268 269 269 269 269 269 268
271 272 273 273 274 274 275 275 274 273 273 272 271 270 269 269 269 267 267 266 265 265 265 265 266 265 265 265 265 265 265 265 264 265 265 266 267 268 268 269 269 268 267
272 273 274 275 275 275 276 276 276 275 274 272 271 270 268 268 267 267 266 266 265 265 265 265 265 265 265 265 265 265 265 265 265 266 266 266 267 267 267 269 269 269 268
273 274 275 275 275 276 277 277 277 277 276 273 271 270 268 267 266 266 265 266 266 265 265 264 264 264 264 264 264 264 265 266 266 266 267 267 267 267 267 268 268 268 268
274 275 275 275 276 276 276 276 277 277 276 274 271 269 268 267 266 265 265 266 265 265 265 265 264 264 263 263 263 264 265 266 267 266 266 266 266 267 268 268 268 267 267
275 275 276 276 276 276 276 275 276 276 275 274 272 270 268 267 266 266 265 266 265 265 265 264 263 263 263 263 263 264 264 266 266 266 266 266 266 267 267 268 268 267 267
274 275 276 276 277 276 276 275 275 275 275 275 273 271 270 269 268 268 267 267 266 266 265 264 263 263 262 262 263 264 265 266 266 266 266 265 266 267 267 267 268 267 266
275 275 276 276 276 276 275 275 274 275 275 274 273 272 271 270 270 269 268 267 266 266 265 264 263 262 262 263 264 265 266 266 266 266 267 267 267 267 267 267 267 267 266
275 276 276 277 276 276 275 275 274 275 275 274 273 272 272 271 270 269 269 268 266 266 265 264 263 263 263 264 264 266 267 268 268 268 269 269 268 268 267 267 267 267 267
275 276 277 278 277 276 275 275 274 274 274 274 273 273 272 271 271 270 268 268 267 267 265 265 265 265 265 266 266 267 267 268 269 270 270 270 269 269 268 267 267 267 266
275 276 278 278 277 276 275 275 274 274 273 273 272 272 272 271 271 270 268 267 266 265 264 265 265 264 265 266 266 267 268 269 270 271 271 271 270 269 269 268 267 267 267
276 278 279 278 277 276 275 275 275 274 274 273 273 272 272 271 270 268 267 266 265 264 264 264 264 264 264 265 266 266 267 269 270 271 271 270 269 269 269 269 269 268 267
278 279 279 279 278 277 275 275 274 274 273 273 273 273 272 270 269 267 267 267 266 265 265 264 264 264 264 265 266 266 267 269 270 271 271 271 270 269 269 269 269 269 268
280 280 280 280 279 277 276 275 275 274 274 274 273 272 272 270 269 267 267 266 265 265 264 264 264 265 265 265 266 267 268 269 270 271 271 270 270 269 268 269 269 268 268
280 280 280 280 278 277 276 276 276 276 276 275 274 273 272 271 269 267 266 265 264 263 263 264 265 265 265 266 267 268 268 268 269 269 270 271 270 268 268 268 268 268 268
281 280 280 279 278 278 277 277 277 277 277 276 274 273 272 270 269 268 267 265 264 263 263 264 265 266 266 266 267 268 268 267 267 268 269 269 269 268 267 267 267 267 268
Height
5611 5611 5611 5611 5611 5611 5611 5611 5612 5612 5612 5612 5612 5612 5613 5613 5614 5614 5615 5616 5617 5618 5620 5621 5622 5623 5624 5625 5625 5626 5627 5627 5628 5630 5630 5630 5630 5629 5629 5629 5628 5628 5627
5599 5599 5599 5599 5599 5599 5599 5599 5599 5600 5600 5600 5599 5599 5600 5600 5600 5601 5602 5603 5604 5605 5606 5607 5609 5609 5610 5611 5611 5612 5612 5613 5614 5616 5616 5616 5615 5615 5615 5615 5614 5614 5613
5587 5587 5587 5587 5587 5587 5586 5586 5586 5586 5586 5586 5586 5586 5586 5586 5586 5587 5588 5589 5590 5591 5592 5593 5594 5595 5595 5596 5596 5597 5598 5598 5599 5600 5602 5602 5601 5601 5600 5600 5599 5599 5598
5575 5575 5575 5574 5574 5573 5573 5573 5573 5573 5573 5572 5572 5572 5572 5572 5572 5572 5573 5574 5575 5576 5577 5578 5579 5580 5580 5581 5581 5582 5582 5583 5583 5584 5585 5586 5587 5586 5585 5585 5584 5584 5583
5563 5562 5562 5561 5561 5560 5560 5559 5558 5558 5558 5558 5558 5557 5557 5557 5557 5557 5558 5559 5560 5561 5561 5562 5563 5564 5564 5565 5566 5567 5567 5568 5568 5568 5569 5570 5571 5571 5570 5569 5568 5568 5568
5550 5550 5549 5548 5547 5546 5546 5545 5544 5543 5543 5543 5542 5542 5542 5541 5541 5541 5542 5543 5544 5545 5545 5546 5547 5548 5548 5549 5550 5551 5551 5552 5552 5553 5553 5554 5555 5555 5554 5553 5552 5552 5553
5538 5537 5536 5535 5534 5533 5531 5530 5529 5528 5528 5527 5527 5527 5527 5526 5526 5526 5526 5527 5528 5528 5529 5530 5530 5531 5532 5533 5534 5535 5535 5535 5536 5536 5537 5538 5538 5539 5538 5537 5536 5536 5536
5525 5524 5523 5522 5520 5519 5518 5516 5515 5514 5514 5513 5512 5511 5511 5511 5510 5510 5510 5511 5511 5512 5513 5514 5514 5515 5516 5517 5518 5519 5519 5519 5520 5520 5521 5522 5521 5521 5521 5521 5520 5520 5520
5512 5511 5510 5508 5507 5505 5504 5503 5502 5500 5499 5498 5497 5496 5496 5495 5495 5494 5494 5495 5495 5496 5497 5497 5498 5499 5500 5500 5501 5503 5503 5504 5504 5504 5505 5505 5505 5505 5504 5504 5503 5503 5504
5499 5498 5496 5495 5494 5492 5490 5489 5487 5486 5484 5483 5482 5481 5480 5480 5479 5479 5478 5479 5480 5481 5482 5482 5482 5483 5484 5484 5485 5486 5487 5488 5488 5488 5489 5489 5489 5488 5488 5487 5487 5487 5487
5485 5484 5483 5482 5480 5478 5477 5475 5473 5471 5470 5469 5468 5467 5466 5465 5464 5464 5463 5464 5464 5465 5466 5466 5467 5467 5468 5469 5469 5470 5471 5472 5472 5472 5473 5473 5473 5473 5472 5471 5471 5471 5471
5472 5471 5470 5468 5466 5465 5463 5461 5459 5457 5455 5453 5452 5451 5450 5449 5449 5448 5448 5449 5449 5449 5450 5451 5452 5452 5453 5453 5454 5454 5455 5455 5456 5456 5457 5457 5457 5457 5457 5456 5455 5455 5455
5458 5457 5456 5454 5452 5451 5449 5447 5444 5442 5440 5439 5437 5436 5436 5435 5434 5434 5434 5434 5434 5435 5435 5436 5437 5437 5438 5438 5439 5439 5440 5440 5440 5441 5442 5442 5442 5442 5441 5441 5441 5441 5441
5445 5443 5442 5440 5438 5437 5435 5433 5430 5428 5426 5425 5423 5422 5422 5421 5420 5420 5420 5421 5421 5421 5421 5422 5422 5423 5423 5423 5424 5425 5425 5425 5425 5426 5426 5427 5427 5427 5427 5427 5427 5426 5427
5430 5429 5427 5426 5424 5422 5420 5418 5416 5414 5412 5411 5409 5408 5408 5408 5407 5407 5407 5407 5407 5407 5407 5407 5408 5408 5409 5409 5410 5410 5410 5411 5411 5411 5411 5412 5412 5412 5412 5412 5412 5412 5413
5416 5414 5413 5411 5410 5408 5406 5405 5402 5401 5399 5397 5396 5395 5394 5394 5394 5394 5393 5393 5393 5393 5393 5394 5394 5395 5395 5396 5396 5397 5397 5397 5397 5397 5397 5397 5397 5398 5398 5398 5398 5398 5399
5402 5400 5398 5397 5395 5393 5392 5391 5389 5388 5386 5384 5383 5382 5381 5381 5380 5380 5379 5379 5379 5379 5379 5380 5381 5382 5382 5382 5382 5383 5383 5383 5382 5382 5383 5383 5383 5383 5383 5383 5383 5383 5384
5387 5386 5384 5382 5381 5379 5378 5377 5376 5374 5373 5372 5371 5369 5368 5368 5367 5366 5366 5366 5366 5366 5366 5367 5368 5369 5369 5369 5369 5369 5369 5369 5369 5368 5368 5368 5368 5368 5368 5368 5368 5369 5369
5373 5372 5370 5369 5367 5366 5364 5363 5362 5361 5360 5359 5358 5357 5356 5355 5355 5354 5353 5353 5354 5354 5354 5354 5355 5356 5356 5356 5356 5356 5356 5356 5356 5355 5355 5354 5354 5354 5354 5354 5354 5354 5355
5359 5358 5357 5355 5354 5352 5351 5350 5349 5348 5347 5346 5345 5345 5344 5343 5343 5342 5341 5341 5342 5342 5342 5342 5343 5343 5343 5343 5343 5343 5343 5343 5343 5342 5341 5341 5340 5340 5340 5340 5340 5341 5341
5346 5345 5344 5342 5340 5339 5338 5337 5336 5335 5334 5333 5333 5332 5331 5331 5330 5330 5330 5329 5329 5329 5329 5330 5330 5330 5331 5331 5331 5331 5331 5330 5330 5329 5328 5328 5327 5327 5327 5327 5327 5328 5328
5333 5332 5331 5329 5328 5326 5325 5324 5323 5322 5321 5321 5320 5319 5318 5318 5318 5318 5317 5317 5317 5316 5317 5317 5317 5318 5318 5318 5318 5318 5318 5318 5317 5317 5316 5315 5315 5315 5315 5315 5315 5315 5316
5321 5320 5318 5317 5315 5314 5313 5312 5311 5310 5309 5309 5308 5307 5306 5306 5305 5305 5305 5304 5304 5303 5304 5304 5304 5305 5305 5306 5306 5306 5306 5306 5305 5304 5304 5303 5303 5303 5303 5303 5303 5303 5303
5309 5308 5306 5305 5303 5302 5301 5300 5299 5298 5297 5296 5296 5295 5294 5293 5293 5292 5292 5291 5291 5291 5291 5291 5292 5292 5293 5293 5293 5293 5293 5293 5293 5292 5292 5291 5291 5291 5291 5291 5291 5291 5291
5298 5296 5295 5293 5292 5291 5289 5288 5287 5286 5285 5284 5283 5282 5282 5281 5280 5279 5279 5278 5278 5278 5278 5279 5279 5280 5280 5281 5281 5281 5281 5281 5280 5280 5280 5279 5279 5279 5279 5279 5279 5279 5279
5287 5285 5284 5283 5281 5280 5278 5277 5276 5275 5274 5273 5271 5271 5269 5268 5268 5267 5267 5266 5266 5266 5266 5267 5267 5268 5268 5268 5269 5269 5269 5269 5269 5268 5268 5268 5268 5268 5268 5268 5268 5268 5268